Weather History for KSLB - October, 2012

Change the Weather History Date:

Wednesday, October 3, 2012

  Actual Average Record
Temperature  
Mean Temperature 60 °F -  
Max Temperature 77 °F 68 °F 91 °F (2006)
Min Temperature 44 °F 43 °F 30 °F (1996)
Degree Days  
Heating Degree Days 4    
Growing Degree Days 10 (Base 50)    
Moisture  
Dew Point 33 °F    
Average Humidity 38    
Maximum Humidity 66    
Minimum Humidity 18    
Precipitation  
Precipitation 0.00 in - - ()
Sea Level Pressure  
Sea Level Pressure 29.86 in    
Wind  
Wind Speed 11 mph (South)    
Max Wind Speed 24 mph    
Max Gust Speed 31 mph    
Visibility 10 miles    
Events      
Averages and records for this station are not official NWS values.
T = Trace of Precipitation, MM = Missing Value Source: NWS Daily Summary

Daily Weather History Graph

Daily Weather History Graph

Search for Another Location

Airport or City:

Trip Planner

Search our weather history database for the weather conditions in past years. The results will help you decide how hot, cold, wet, or windy it might be!

Date:

Astronomy

Oct. 03, 2012 Rise Set
Actual Time 7:20 AM CDT 6:57 PM CDT
Civil Twilight 6:52 AM CDT 7:26 PM CDT
Nautical Twilight 6:20 AM CDT 7:58 PM CDT
Astronomical Twilight 5:47 AM CDT 8:31 PM CDT
Moon 8:45 PM CDT (10/3) 10:50 AM CDT (10/3)
Length of Visible Light 12h 33m
Length of Day
11h 37m
Waning Gibbous, 88% of the Moon is Illuminated
Oct 3
Waning Gibbous
Oct 8
Last Quarter
Oct 15
New
Oct 21
First Quarter
Oct 29
Full

Hourly Weather History & Observations

Time (CDT) Temp. Windchill Dew Point Humidity Pressure Visibility Wind Dir Wind Speed Gust Speed Precip Events Conditions
12:15 AM 53.6 °F - 30.2 °F 41% 29.90 in 10.0 mi South 5.8 mph - N/A   Clear
12:35 AM 48.2 °F - 30.2 °F 50% 29.89 in 10.0 mi South 6.9 mph - N/A   Clear
12:55 AM 48.2 °F - 32.0 °F 54% 29.89 in 10.0 mi South 6.9 mph - N/A   Clear
1:15 AM 48.2 °F - 32.0 °F 54% 29.89 in 10.0 mi South 9.2 mph - N/A   Clear
1:35 AM 48.2 °F - 32.0 °F 54% 29.89 in 10.0 mi South 10.4 mph - N/A   Clear
1:55 AM 50.0 °F - 32.0 °F 50% 29.89 in 10.0 mi South 8.1 mph - N/A   Clear
2:15 AM 48.2 °F - 32.0 °F 54% 29.89 in 10.0 mi South 8.1 mph - N/A   Clear
4:15 AM 48.2 °F - 33.8 °F 58% 29.89 in 10.0 mi South 10.4 mph - N/A   Clear
4:35 AM 46.4 °F 41.5 °F 33.8 °F 62% 29.89 in - South 10.4 mph - N/A   Clear
4:55 AM 46.4 °F 41.1 °F 33.8 °F 62% 29.89 in 10.0 mi South 11.5 mph - N/A   Clear
5:15 AM 46.4 °F 41.9 °F 33.8 °F 62% 29.89 in 10.0 mi South 9.2 mph - N/A   Clear
5:35 AM 44.6 °F 39.7 °F 33.8 °F 66% 29.89 in 10.0 mi South 9.2 mph - N/A   Clear
5:55 AM 46.4 °F 42.4 °F 33.8 °F 62% 29.90 in 10.0 mi South 8.1 mph - N/A   Clear
6:15 AM 48.2 °F - 33.8 °F 58% 29.90 in 10.0 mi South 6.9 mph - N/A   Clear
6:35 AM 48.2 °F - 33.8 °F 58% 29.90 in 10.0 mi South 8.1 mph - N/A   Clear
6:55 AM 46.4 °F 42.9 °F 33.8 °F 62% 29.90 in 10.0 mi South 6.9 mph - N/A   Clear
7:15 AM 48.2 °F - 32.0 °F 54% 29.90 in 10.0 mi South 6.9 mph - N/A   Clear
7:35 AM 48.2 °F - 32.0 °F 54% 29.90 in 10.0 mi SSE 4.6 mph - N/A   Clear
7:55 AM 44.6 °F 41.4 °F 33.8 °F 66% 29.90 in 10.0 mi SSE 5.8 mph - N/A   Clear
8:15 AM 48.2 °F - 35.6 °F 62% 29.91 in 10.0 mi South 8.1 mph - N/A   Clear
8:35 AM 51.8 °F - 35.6 °F 54% 29.91 in 10.0 mi South 5.8 mph - N/A   Clear
8:55 AM 55.4 °F - 33.8 °F 44% 29.91 in 10.0 mi South 5.8 mph - N/A   Clear
9:15 AM 57.2 °F - 35.6 °F 44% 29.90 in 9.0 mi South 6.9 mph - N/A   Clear
9:35 AM 57.2 °F - 35.6 °F 44% 29.90 in 9.0 mi SSE 9.2 mph - N/A   Clear
9:55 AM 60.8 °F - 35.6 °F 39% 29.90 in 9.0 mi South 10.4 mph - N/A   Clear
10:15 AM 62.6 °F - 35.6 °F 37% 29.90 in 9.0 mi South 11.5 mph - N/A   Clear
10:35 AM 66.2 °F - 33.8 °F 30% 29.90 in 10.0 mi South 12.7 mph - N/A   Clear
10:55 AM 68.0 °F - 32.0 °F 26% 29.89 in 10.0 mi SSE 16.1 mph - N/A   Clear
11:15 AM 69.8 °F - 32.0 °F 25% 29.88 in 10.0 mi SSE 17.3 mph - N/A   Clear
11:35 AM 71.6 °F - 32.0 °F 23% 29.88 in 10.0 mi South 18.4 mph 25.3 mph N/A   Clear
11:55 AM 71.6 °F - 32.0 °F 23% 29.88 in 10.0 mi South 17.3 mph - N/A   Clear
12:15 PM 71.6 °F - 32.0 °F 23% 29.87 in 10.0 mi South 17.3 mph 23.0 mph N/A   Clear
12:55 PM 73.4 °F - 32.0 °F 22% 29.86 in 10.0 mi South 18.4 mph 25.3 mph N/A   Clear
1:15 PM 75.2 °F - 32.0 °F 21% 29.85 in - South 16.1 mph - N/A   Clear
1:35 PM 75.2 °F - 32.0 °F 21% 29.84 in 10.0 mi South 19.6 mph 25.3 mph N/A   Clear
1:55 PM 75.2 °F - 32.0 °F 21% 29.83 in 10.0 mi South 17.3 mph 24.2 mph N/A   Clear
2:15 PM 77.0 °F - 32.0 °F 19% 29.81 in 10.0 mi South 16.1 mph 26.5 mph N/A   Clear
2:35 PM 77.0 °F - 32.0 °F 19% 29.81 in 10.0 mi SSE 20.7 mph 27.6 mph N/A   Clear
2:55 PM 77.0 °F - 32.0 °F 19% 29.80 in 10.0 mi South 20.7 mph 29.9 mph N/A   Clear
3:15 PM 77.0 °F - 30.2 °F 18% 29.80 in 10.0 mi South 21.9 mph 28.8 mph N/A   Clear
3:35 PM 77.0 °F - 32.0 °F 19% 29.80 in 10.0 mi South 18.4 mph 26.5 mph N/A   Clear
3:55 PM 77.0 °F - 32.0 °F 19% 29.80 in 10.0 mi South 20.7 mph 28.8 mph N/A   Clear
4:15 PM 77.0 °F - 32.0 °F 19% 29.80 in 10.0 mi South 24.2 mph - N/A   Clear
4:35 PM 77.0 °F - 32.0 °F 19% 29.80 in 10.0 mi South 18.4 mph 31.1 mph N/A   Clear
4:55 PM 77.0 °F - 30.2 °F 18% 29.79 in 10.0 mi South 19.6 mph - N/A   Clear
5:15 PM 77.0 °F - 32.0 °F 19% 29.79 in 10.0 mi South 18.4 mph 28.8 mph N/A   Clear
5:55 PM 75.2 °F - 32.0 °F 21% 29.80 in 10.0 mi South 19.6 mph 26.5 mph N/A   Clear
6:15 PM 73.4 °F - 32.0 °F 22% 29.80 in 10.0 mi South 18.4 mph 24.2 mph N/A   Clear
6:35 PM 71.6 °F - 32.0 °F 23% 29.81 in 10.0 mi South 15.0 mph - N/A   Clear
6:55 PM 68.0 °F - 33.8 °F 28% 29.82 in 10.0 mi South 11.5 mph 17.3 mph N/A   Clear
7:15 PM 66.2 °F - 33.8 °F 30% 29.83 in 10.0 mi South 11.5 mph - N/A   Clear
7:35 PM 62.6 °F - 33.8 °F 34% 29.83 in 10.0 mi SSE 11.5 mph - N/A   Clear
7:55 PM 64.4 °F - 33.8 °F 32% 29.83 in 10.0 mi SSE 11.5 mph - N/A   Clear
8:15 PM 62.6 °F - 33.8 °F 34% 29.83 in 10.0 mi SSE 11.5 mph - N/A   Clear
8:35 PM 64.4 °F - 33.8 °F 32% 29.83 in 10.0 mi SSE 12.7 mph - N/A   Clear
8:55 PM 60.8 °F - 33.8 °F 36% 29.84 in 10.0 mi South 12.7 mph - N/A   Clear
9:35 PM 60.8 °F - 33.8 °F 36% 29.85 in 10.0 mi South 11.5 mph - N/A   Mostly Cloudy
9:55 PM 59.0 °F - 33.8 °F 39% 29.85 in 10.0 mi South 12.7 mph - N/A   Mostly Cloudy
10:15 PM 59.0 °F - 33.8 °F 39% 29.86 in 10.0 mi South 12.7 mph - N/A   Clear
10:35 PM 57.2 °F - 33.8 °F 41% 29.86 in 10.0 mi South 11.5 mph - N/A   Clear
10:55 PM 57.2 °F - 33.8 °F 41% 29.86 in 10.0 mi South 12.7 mph - N/A   Clear
11:15 PM 60.8 °F - 33.8 °F 36% 29.86 in 10.0 mi South 13.8 mph - N/A   Clear
11:35 PM 60.8 °F - 35.6 °F 39% 29.87 in 10.0 mi SSW 11.5 mph - N/A   Clear
11:55 PM 60.8 °F - 35.6 °F 39% 29.88 in 10.0 mi SSW 13.8 mph - N/A   Clear